GFSGBSN_prec_cthk_210.txt.gz
RH
60 68 72 75 80 85 88 91 90 82 53 42 33 29 29 38 31 35 39 42 48 46 46 46 44 45 46 44 40 34 33 36 39 40 41 38 38 39 37 34 33 31 31 31 32 32 31
40 48 58 71 75 81 90 91 93 91 90 75 46 36 30 34 29 32 35 41 46 47 46 46 47 47 47 45 41 42 36 36 39 38 41 42 39 39 39 35 34 32 30 29 31 31 31
39 39 39 41 58 70 80 92 93 96 95 95 85 56 37 31 29 31 33 36 43 48 45 45 48 48 48 40 39 39 36 36 39 39 40 45 42 40 39 37 35 33 31 30 29 30 28
44 44 41 39 43 44 63 81 92 96 99 97 96 88 66 40 33 32 38 37 37 46 47 45 48 50 47 38 38 44 46 39 39 41 41 47 46 43 42 39 36 34 32 31 29 28 27
53 48 43 40 35 36 39 58 82 96 97 99 98 97 94 80 52 38 39 46 42 49 51 46 48 51 46 36 34 40 48 46 42 43 42 46 51 47 43 43 39 35 31 32 30 28 27
50 53 50 44 40 33 32 37 55 81 95 99 99 99 98 98 92 70 50 48 52 54 57 54 53 53 40 36 35 42 51 47 42 44 44 44 51 50 46 43 39 38 37 35 33 30 29
44 45 49 51 45 39 29 27 31 53 78 93 97 99 99 98 99 97 84 67 64 72 65 54 49 44 39 38 37 44 49 47 45 46 45 46 48 49 45 44 43 40 38 35 33 33 32
47 44 41 44 45 41 37 31 25 28 47 76 90 96 97 100 99 98 97 77 72 70 72 65 55 53 46 42 42 45 50 47 48 47 48 48 48 46 52 47 46 43 41 38 38 37 38
45 47 44 42 41 38 38 31 25 24 26 37 73 85 92 97 99 99 96 91 89 84 80 70 63 56 51 51 50 51 49 45 44 49 50 49 48 51 54 54 50 46 45 44 43 43 42
39 39 41 45 46 42 37 34 31 19 16 24 29 64 78 92 100 98 97 97 97 95 95 70 72 69 69 64 59 59 55 51 49 48 51 50 52 50 52 53 58 54 50 49 47 50 49
39 33 35 40 41 45 47 40 33 29 18 15 25 30 58 78 93 98 95 99 99 97 97 73 67 69 67 64 56 55 57 57 52 50 50 50 51 52 56 58 58 59 57 57 57 56 54
85 71 51 35 37 45 49 49 41 31 28 16 21 27 40 63 77 87 99 99 99 98 93 74 75 77 74 75 68 66 60 56 53 54 56 54 58 56 55 61 63 62 62 63 62 60 56
94 92 90 75 48 37 41 51 46 40 32 26 20 30 30 56 64 78 94 98 98 97 79 68 80 76 72 72 73 67 62 62 58 64 60 59 59 64 63 63 66 65 69 72 63 59 51
93 91 92 92 89 67 37 41 49 42 41 30 24 26 30 40 63 76 86 98 97 90 74 65 78 78 74 76 76 70 69 65 59 54 50 56 61 61 56 57 60 65 66 73 82 62 55
97 97 92 88 90 91 80 41 40 47 43 42 26 32 34 23 56 79 86 98 96 78 64 74 83 84 78 79 70 72 65 64 63 63 59 62 61 60 65 66 70 75 72 71 83 76 69
76 76 91 93 92 93 94 89 48 43 52 49 39 45 38 31 37 83 95 93 96 82 71 79 84 81 80 79 76 76 73 66 70 69 68 73 79 68 70 72 70 75 76 90 94 83 73
70 71 72 71 79 90 95 97 92 51 52 61 56 60 38 39 39 83 98 98 94 76 72 80 78 78 77 75 73 78 72 65 72 74 77 70 71 65 64 65 69 72 78 77 77 75 76
69 83 84 77 73 74 92 98 98 79 49 75 65 68 48 58 66 55 97 97 86 74 74 79 75 72 72 71 77 81 78 72 71 75 80 77 77 77 66 60 63 68 72 77 88 89 74
70 81 83 77 78 74 82 98 99 90 68 71 78 58 69 74 72 64 67 97 93 74 76 70 65 60 64 68 76 73 76 71 62 71 78 76 85 90 83 73 67 63 63 70 74 77 75
67 84 82 84 80 84 76 99 99 94 71 70 84 78 82 88 62 59 55 93 98 81 69 64 48 60 68 65 58 66 77 73 68 70 74 74 78 72 70 64 60 63 61 64 75 84 69
54 80 89 86 85 87 78 99 99 93 74 81 82 74 61 87 82 66 64 76 98 96 82 74 69 70 64 65 68 71 72 71 75 78 80 79 79 78 75 68 61 59 61 62 64 63 68
54 62 91 98 99 97 91 99 98 92 81 93 86 79 72 76 73 75 63 64 96 95 91 82 71 57 55 58 55 64 65 69 79 84 80 81 85 84 82 77 72 66 62 60 60 63 61
57 52 68 97 98 98 99 98 98 91 90 89 84 73 98 74 75 82 61 73 82 94 88 74 52 60 70 68 73 79 75 82 85 81 81 89 92 86 93 90 83 84 65 61 64 62 58
68 60 58 75 92 99 98 99 96 85 85 86 79 79 87 77 90 81 73 77 72 89 87 78 78 75 73 80 80 85 94 95 89 93 92 95 96 96 95 87 93 60 56 59 59 59 58
80 79 70 71 84 96 99 96 85 73 72 82 80 76 89 97 93 92 91 72 76 86 91 88 83 83 69 82 96 99 97 98 97 92 93 94 94 94 94 88 68 59 51 57 59 57 54
88 89 90 81 76 79 81 81 75 69 68 74 79 83 90 92 93 94 85 87 84 78 88 95 94 83 84 96 98 96 91 83 93 86 90 96 94 91 94 92 79 58 49 51 56 53 47
93 96 98 97 90 78 68 72 71 76 81 79 86 87 90 92 81 98 84 81 98 91 82 87 93 92 84 92 97 95 91 84 84 77 88 95 96 93 93 89 74 59 55 50 57 54 48
90 97 98 98 94 95 75 67 72 83 90 92 82 80 92 97 98 93 98 80 95 95 96 97 95 98 95 97 96 96 89 88 77 82 88 89 92 92 92 95 87 61 57 56 54 54 47
77 93 97 98 99 97 92 86 81 85 91 96 92 89 96 95 96 96 97 98 77 90 92 94 84 77 90 94 91 89 89 76 77 86 80 89 81 83 82 80 71 63 58 56 54 49 44

GFSGBSN_prec_cthk_216.txt.gz
RH
59 52 50 49 51 59 76 80 83 86 88 86 86 85 68 52 42 33 33 37 34 40 47 50 39 41 43 44 37 45 41 39 40 33 32 34 34 34 35 38 37 38 38 35 34 35 34
60 57 51 50 51 47 48 63 81 83 85 88 91 89 89 83 58 47 36 35 36 41 44 46 50 52 54 53 40 45 42 44 46 42 35 35 35 36 33 37 39 38 39 36 34 32 31
48 52 54 51 51 52 47 45 50 72 83 86 90 92 95 92 89 72 52 41 38 36 37 44 46 54 58 49 45 46 46 46 46 44 38 35 38 36 38 36 38 38 37 36 33 31 30
47 46 46 49 52 52 51 51 44 43 55 77 83 90 92 95 98 93 79 63 47 42 39 42 45 54 55 46 43 44 44 47 46 47 40 39 38 41 41 42 40 41 39 35 31 30 28
44 45 46 44 46 47 48 52 50 44 42 44 66 82 87 94 98 98 99 88 75 56 48 48 50 51 50 41 42 38 41 43 48 49 41 40 41 42 43 44 46 38 40 36 32 31 30
38 35 41 46 43 44 44 45 49 49 45 41 41 59 83 89 93 96 98 99 96 80 67 61 60 63 53 46 35 36 38 39 43 50 49 44 43 45 46 43 44 39 44 43 37 33 35
37 33 33 32 35 42 44 44 42 44 49 45 40 41 52 80 93 96 99 99 99 97 84 70 63 56 47 51 45 37 35 41 47 47 50 42 43 44 41 39 42 38 43 48 46 42 44
57 46 36 30 29 27 32 38 42 45 39 45 46 40 39 46 81 92 99 98 95 94 97 83 75 69 55 53 58 44 36 38 46 45 44 47 42 36 36 43 47 45 42 43 44 46 44
76 69 65 60 54 40 29 25 24 30 41 41 39 48 45 36 44 74 94 93 96 98 97 90 86 76 69 58 57 55 45 38 44 47 46 40 31 33 41 44 48 49 45 45 45 44 45
91 90 85 80 76 69 61 50 29 24 29 37 43 42 48 45 32 40 61 94 96 99 98 90 87 78 79 76 56 60 57 46 44 47 49 44 34 39 48 43 44 48 47 47 47 51 50
86 88 85 83 84 84 79 74 64 47 23 29 42 46 47 48 43 34 51 63 97 99 97 82 71 82 75 76 65 58 59 58 48 46 48 40 41 36 44 44 47 49 50 52 54 52 53
76 74 75 76 76 77 80 83 77 71 59 28 33 45 50 44 36 35 34 59 89 99 96 83 66 65 75 72 76 72 70 64 60 49 46 45 47 42 38 43 49 56 57 57 59 59 61
57 60 63 66 71 72 72 75 77 79 73 63 32 32 43 51 38 49 32 63 79 98 96 88 62 62 66 72 80 77 79 71 67 68 52 51 46 42 39 44 50 58 61 66 68 64 52
44 48 52 59 63 67 69 68 72 79 83 79 68 38 31 39 51 54 61 69 88 75 97 78 67 64 71 75 77 71 82 79 69 67 63 62 55 45 41 48 51 58 60 66 71 65 59
42 49 50 54 57 59 63 65 66 69 82 88 89 82 50 36 54 62 72 80 77 85 82 75 74 77 76 78 73 77 71 71 66 63 64 63 50 54 54 54 56 64 63 60 64 64 72
41 49 51 53 55 57 60 60 61 63 72 87 96 94 75 41 58 72 80 79 78 74 76 70 76 85 81 75 72 79 77 62 65 64 67 62 71 61 58 58 59 59 62 72 74 90 80
37 45 51 51 54 58 56 53 53 59 67 84 94 99 64 62 73 89 85 75 56 64 69 80 76 91 78 69 68 74 64 57 57 62 72 73 80 74 66 58 62 62 64 66 70 74 72
36 45 46 49 53 55 52 47 47 51 69 87 98 97 67 79 92 86 84 61 67 45 63 84 88 84 79 61 66 70 63 48 52 66 71 70 80 88 75 66 60 62 57 64 87 89 75
39 47 47 50 46 49 53 59 65 63 77 87 95 93 96 90 99 93 75 74 78 65 51 64 94 85 81 63 64 59 56 45 52 66 71 74 91 97 87 79 68 65 67 68 69 77 72
43 49 51 51 43 50 57 75 89 96 92 95 98 98 98 97 91 86 84 73 76 71 62 52 77 93 84 72 65 63 59 56 56 67 72 82 93 83 82 74 77 75 72 74 72 84 76
46 52 54 49 46 47 73 92 95 99 99 99 98 95 79 84 81 68 65 63 69 71 66 66 55 85 86 81 70 68 65 67 62 73 79 87 92 85 73 81 77 72 75 76 80 73 82
47 53 62 55 47 52 79 79 88 95 99 99 93 82 78 79 80 85 76 78 65 63 71 69 73 62 92 91 74 71 61 63 57 71 80 93 85 84 82 79 92 95 84 71 76 80 76
47 58 69 62 50 63 74 77 81 99 98 98 93 87 80 82 80 85 76 64 63 59 74 73 87 66 76 81 86 70 60 56 59 69 78 94 93 91 92 84 89 93 73 76 63 58 59
48 60 70 70 50 63 86 86 97 99 99 98 92 91 86 87 85 72 70 77 70 73 65 83 80 80 75 86 79 87 83 83 73 73 83 90 94 94 97 97 97 50 55 62 63 56 53
38 58 68 74 60 56 91 97 98 99 98 95 89 84 81 83 76 84 82 76 73 73 80 71 81 78 75 93 99 94 99 89 90 73 86 89 93 97 93 91 69 56 50 48 57 56 55
28 53 66 74 79 57 81 94 99 98 99 96 93 89 84 88 85 76 85 87 91 77 78 71 62 72 83 94 94 98 96 87 97 97 94 93 90 89 90 91 88 55 57 47 50 53 48
25 41 60 70 83 78 66 91 96 99 98 98 97 91 90 95 97 89 94 85 78 89 83 74 63 68 86 98 98 98 95 79 90 85 80 98 97 92 83 87 70 56 54 54 61 46 44
33 30 52 66 78 93 82 71 83 96 97 98 96 91 93 95 96 98 96 98 97 93 98 92 89 79 87 99 98 98 98 88 82 76 82 78 86 90 89 92 83 48 56 59 53 47 47
34 31 40 63 72 93 94 80 69 74 81 83 90 89 96 98 96 92 91 84 82 89 97 96 98 88 79 98 98 99 98 97 80 90 79 87 70 67 60 57 52 49 57 56 54 48 48

GFSGBSN_prec_cthk_219.txt.gz
RH
56 64 66 59 58 55 54 57 69 80 85 87 91 90 87 89 80 54 41 37 38 34 33 34 36 37 39 44 39 39 38 38 37 34 34 35 38 34 33 34 36 37 36 37 36 40 40
49 52 58 63 62 57 55 53 54 60 77 84 89 92 94 92 91 87 73 48 41 40 36 38 40 44 46 45 42 45 36 40 42 39 36 37 38 40 34 33 34 37 37 35 36 35 36
39 43 47 55 56 61 57 56 57 53 50 66 80 87 90 95 93 90 90 80 64 48 44 39 39 42 46 38 41 47 45 46 51 47 40 40 41 43 36 34 34 35 39 36 34 34 34
31 33 39 41 49 53 56 58 60 59 58 49 53 69 82 91 93 96 95 94 86 75 61 50 45 45 45 37 37 41 50 50 53 52 45 44 44 42 42 37 36 37 40 41 32 36 34
41 31 30 35 38 45 48 47 54 60 59 58 52 48 60 75 87 92 94 98 95 93 81 67 60 55 48 39 34 34 41 46 52 54 49 46 47 45 45 42 41 37 43 44 38 35 34
61 49 37 28 27 30 37 46 43 46 51 54 56 56 48 48 71 81 90 97 97 99 98 92 70 68 54 52 37 29 32 43 50 52 53 50 50 49 48 47 44 40 46 42 42 37 39
80 68 58 47 37 29 27 27 32 40 40 41 47 54 59 52 43 59 81 92 98 98 98 85 84 68 58 55 51 42 40 44 47 48 52 51 53 51 46 43 35 39 44 44 42 40 48
91 86 81 73 66 56 42 31 24 24 36 42 43 44 48 56 57 42 53 89 94 98 99 96 90 78 73 69 65 58 58 52 49 49 46 51 50 45 42 43 44 40 43 43 41 39 45
90 96 97 88 83 82 76 67 56 37 25 24 31 41 44 43 57 57 46 51 91 99 99 90 82 85 82 76 72 64 64 62 55 53 47 45 36 39 47 45 46 40 40 40 46 39 42
72 80 84 87 86 83 79 78 74 68 61 45 24 27 39 45 48 54 54 42 48 95 98 93 82 79 87 90 76 72 68 67 62 58 54 47 39 39 46 45 40 39 34 39 47 51 47
56 57 65 74 75 73 76 76 73 72 71 68 62 35 27 48 47 48 52 67 57 72 97 93 78 76 77 75 64 69 71 76 63 58 56 41 38 36 41 43 43 36 35 46 50 52 55
46 49 51 56 56 57 61 64 69 73 72 72 73 70 41 35 51 46 52 51 72 70 94 94 80 77 76 66 67 73 74 77 74 66 55 44 41 40 37 40 47 45 50 52 56 55 60
38 40 42 42 45 49 53 58 60 66 70 73 79 80 76 47 31 55 60 58 74 91 62 91 77 72 70 71 73 78 80 80 80 80 58 54 45 44 43 44 45 50 62 76 83 70 64
34 36 36 38 42 47 49 50 53 59 66 71 77 85 87 70 41 55 71 77 80 55 72 56 65 68 77 69 75 77 87 84 73 71 67 65 61 48 45 43 46 49 58 67 84 77 61
32 32 33 35 39 43 47 47 50 53 62 69 80 82 89 73 72 56 75 87 71 45 42 52 57 76 78 77 72 81 88 76 75 67 74 68 58 48 45 41 47 50 57 56 66 58 67
28 31 33 35 40 42 45 46 49 53 61 74 80 87 75 82 95 85 86 77 71 56 41 56 54 61 76 75 76 84 83 64 77 71 67 61 69 60 56 57 54 53 55 62 79 91 83
23 25 31 35 43 47 47 48 50 56 62 74 77 85 59 79 96 99 92 73 55 47 50 71 68 54 68 69 72 82 75 57 71 69 67 66 67 70 67 57 57 62 64 66 70 83 83
22 25 28 38 47 52 53 51 49 55 63 68 78 83 66 83 96 92 92 63 49 39 46 67 82 84 57 58 74 79 77 59 53 59 78 60 68 78 65 69 65 62 61 65 79 81 82
21 24 29 42 49 53 50 50 54 55 64 76 77 77 80 86 95 92 70 71 63 51 43 64 84 91 85 84 76 72 60 52 59 67 71 71 85 85 84 82 81 81 77 65 69 82 81
21 25 31 48 51 54 49 47 51 57 67 84 90 90 93 92 85 91 82 70 76 57 49 56 75 85 95 93 93 86 71 56 59 63 61 74 85 68 62 57 67 84 77 72 70 84 78
18 23 34 51 53 55 48 43 52 71 83 99 98 97 82 87 88 86 81 74 70 74 56 37 74 87 92 98 92 95 92 77 68 66 74 76 74 65 60 69 67 69 74 70 70 60 82
22 23 35 48 53 55 45 47 59 72 90 99 98 98 89 88 93 90 71 80 73 62 60 55 53 76 88 91 90 78 94 96 81 81 78 80 69 70 80 82 74 78 74 79 74 71 76
27 23 32 47 53 59 48 62 63 64 82 97 98 96 87 93 92 95 67 67 66 75 67 54 56 44 74 76 80 78 88 97 97 82 81 83 81 76 80 83 91 98 73 77 80 78 73
31 27 27 42 54 61 56 77 77 82 91 95 96 90 86 95 85 74 81 80 74 69 67 65 65 54 52 67 88 87 87 85 88 88 70 79 81 81 80 93 98 70 65 63 66 62 66
34 33 26 38 55 64 61 82 85 96 99 99 97 92 88 96 92 89 83 79 76 75 79 69 64 66 50 76 96 98 96 96 85 94 83 80 85 95 88 95 80 69 61 62 61 54 59
28 30 29 33 53 66 65 88 92 98 98 98 96 91 86 93 93 81 81 80 82 81 82 70 67 71 80 85 94 97 93 98 98 98 91 89 81 72 90 93 95 52 54 58 65 64 51
25 27 27 28 47 63 71 71 93 90 97 96 94 91 86 92 96 88 93 89 83 81 80 80 78 76 78 97 91 91 96 93 97 96 98 97 95 91 84 89 89 58 53 60 72 45 38
22 27 28 29 45 64 77 71 80 94 92 98 98 95 92 98 97 92 87 86 88 96 95 91 88 87 90 98 98 95 93 91 98 94 93 92 96 95 97 90 89 53 61 54 39 34 34
24 27 30 32 46 64 81 81 64 78 93 93 98 97 98 98 98 93 87 82 81 83 83 85 96 86 98 96 97 95 95 87 88 88 88 97 85 86 75 56 46 45 50 54 45 42 42

GFSGBSN_prec_cthk_222.txt.gz
RH
35 40 52 58 64 66 64 61 67 71 73 80 86 88 90 90 88 91 88 61 39 35 35 34 34 32 35 40 30 30 33 37 36 35 34 33 34 35 35 35 35 31 32 33 33 36 36
30 31 35 44 53 59 64 68 59 64 66 73 74 84 90 88 90 88 88 91 79 50 38 37 35 35 39 38 30 30 32 37 41 41 43 38 36 39 36 35 35 36 32 32 32 34 37
51 40 32 30 33 41 52 58 64 59 59 63 68 74 80 89 90 88 97 92 89 87 72 49 43 38 38 29 29 31 32 33 41 48 52 38 39 41 38 37 37 37 34 32 30 33 34
63 55 48 38 30 30 38 46 54 64 63 59 64 64 70 76 81 85 90 94 95 95 94 85 72 58 48 42 33 33 38 41 43 47 53 50 49 50 46 41 39 40 39 36 31 36 34
81 75 65 56 44 33 30 35 41 49 57 61 62 63 62 61 68 77 81 86 95 99 99 97 90 76 58 47 40 29 33 38 42 45 50 54 53 55 51 46 46 43 39 40 33 35 37
93 87 79 72 63 50 44 29 27 36 44 47 59 62 64 63 62 59 70 76 82 98 100 99 97 88 64 59 50 44 34 36 41 43 52 54 55 56 55 53 50 42 45 41 41 34 42
80 87 89 87 81 69 59 48 37 26 27 37 43 58 60 63 64 66 59 60 84 90 99 95 84 75 77 76 60 55 53 44 49 50 51 51 57 57 50 46 41 40 45 42 40 34 43
79 81 80 88 92 86 82 75 71 56 38 25 29 45 49 56 66 65 66 60 70 95 96 96 87 83 84 84 79 73 66 63 56 53 47 53 49 50 48 47 50 49 48 48 40 35 39
72 70 70 67 80 88 88 84 81 77 74 63 41 32 30 38 55 61 68 65 60 71 94 94 88 88 85 87 78 78 76 75 69 68 60 56 44 48 49 46 48 48 47 47 46 36 36
47 51 59 55 58 67 78 80 81 77 76 73 72 64 42 27 43 53 56 61 67 58 78 80 89 79 84 85 76 76 80 79 75 71 67 63 52 50 49 45 44 46 41 47 47 48 45
39 38 45 48 49 54 58 62 66 71 74 73 74 74 72 61 37 41 53 59 65 65 76 45 61 75 77 75 63 71 76 80 77 74 73 54 55 55 50 44 40 38 39 45 49 49 45
33 33 37 41 44 46 46 47 50 58 64 73 79 78 81 79 64 41 55 70 75 79 71 59 61 64 75 69 68 76 83 77 81 85 71 60 59 55 44 47 47 41 40 43 50 54 54
28 29 30 37 38 40 38 38 43 52 58 63 74 77 82 82 67 68 54 66 78 87 59 56 55 64 67 73 75 84 85 87 81 89 76 70 62 61 55 55 50 49 49 64 71 69 55
28 27 28 29 29 34 37 38 39 41 47 50 56 68 73 76 83 87 77 82 81 52 59 41 42 54 67 70 76 82 91 88 77 72 69 77 69 57 56 59 56 54 53 59 67 65 57
27 28 28 28 28 32 40 48 49 49 51 54 56 57 63 74 84 89 93 92 71 51 33 47 46 71 69 71 67 76 85 77 68 71 71 70 65 50 55 58 60 52 60 41 58 60 69
25 27 29 29 29 31 40 52 56 55 57 64 65 61 59 76 88 94 98 84 72 53 33 33 57 66 78 72 75 83 86 72 70 66 67 65 68 54 54 62 62 58 52 63 65 75 74
23 20 23 26 29 31 43 52 60 63 64 66 69 65 60 77 93 98 95 71 57 47 43 38 44 64 64 68 73 83 81 59 63 67 72 69 77 66 63 63 62 66 65 62 60 69 70
25 26 22 20 26 30 45 54 64 63 67 73 75 65 69 78 94 91 90 44 48 46 52 54 52 61 74 66 82 75 77 59 48 60 75 64 78 80 71 70 67 67 63 58 67 62 67
30 30 27 22 23 31 54 63 71 71 71 79 76 73 72 80 85 80 66 62 54 47 43 50 54 50 56 61 81 80 82 64 61 68 66 70 86 94 90 80 81 76 67 63 61 68 61
29 29 30 27 24 36 64 71 75 74 72 79 82 79 79 84 58 67 71 61 61 50 48 42 45 45 46 84 81 73 77 69 57 62 55 62 80 84 76 55 59 77 68 61 66 77 62
25 28 31 31 27 43 68 77 79 75 72 83 77 67 67 73 75 70 71 66 70 70 53 55 56 59 49 63 90 96 81 72 78 74 76 87 86 87 68 69 68 64 67 67 68 51 75
24 28 29 28 29 45 62 76 78 75 79 87 89 92 83 77 78 95 95 83 74 63 72 60 54 46 44 45 65 96 93 90 81 70 75 77 87 89 85 74 75 75 65 70 64 59 64
28 27 24 23 27 43 53 71 74 72 87 85 81 87 93 84 92 95 79 71 70 82 76 66 55 58 64 45 33 65 83 96 93 98 95 88 88 92 88 69 77 91 75 58 59 65 57
31 22 19 22 25 38 49 69 68 80 80 79 83 98 99 96 95 71 82 86 82 79 68 64 75 80 42 51 46 44 76 87 94 94 96 98 95 92 88 76 98 86 51 55 59 52 55
30 24 16 21 25 34 47 63 64 77 82 83 89 93 91 97 95 94 91 87 85 85 82 83 77 63 69 69 72 65 60 89 86 86 81 91 98 99 97 95 95 85 63 60 58 47 50
30 30 20 21 27 31 46 61 68 74 85 87 88 97 97 97 91 88 88 86 82 77 89 82 82 80 80 89 89 86 78 66 77 77 72 94 97 98 97 97 97 65 42 45 59 72 53
26 30 25 22 29 31 43 60 71 68 87 86 91 94 98 99 91 89 85 77 81 88 88 90 86 84 80 82 87 90 87 82 93 96 87 98 98 97 98 97 94 56 51 63 90 53 43
26 28 26 21 30 32 43 60 74 70 86 89 91 97 96 98 97 90 85 84 89 89 91 88 91 89 89 87 80 78 78 78 88 84 89 87 98 98 98 98 95 58 63 63 44 40 42
30 30 25 22 31 33 54 71 82 75 77 91 91 91 98 98 98 97 90 93 90 86 88 92 88 77 76 83 86 78 74 86 81 67 75 98 89 98 88 74 62 55 53 50 50 46 45

GFSGBSN_prec_cthk_225.txt.gz
RH
45 43 39 32 25 42 57 66 72 78 80 83 84 82 87 89 85 86 87 88 81 46 34 32 33 31 31 32 26 28 32 34 34 33 33 35 36 34 34 35 35 34 31 31 30 32 34
60 53 52 46 36 24 32 49 58 69 76 79 79 82 83 84 92 92 90 89 88 92 72 45 35 33 34 36 27 28 29 32 33 35 35 36 36 36 36 37 36 34 32 31 30 31 33
74 70 62 58 53 44 30 28 42 53 65 69 72 76 82 83 84 87 92 92 92 90 94 90 71 44 36 28 30 31 31 28 34 36 37 39 40 42 43 41 38 37 35 31 30 30 32
75 77 78 77 66 59 50 35 29 41 51 64 67 72 75 81 84 82 82 86 93 94 92 95 94 87 61 38 29 28 32 33 33 37 40 43 43 46 47 44 41 40 38 37 30 31 31
60 66 80 83 78 75 66 53 43 32 37 42 61 68 71 72 76 80 80 78 84 86 98 94 95 89 75 63 52 35 30 32 37 37 39 45 47 50 48 50 50 49 52 43 32 32 35
60 64 69 76 86 85 81 70 59 48 37 29 41 58 68 73 70 73 77 77 77 81 84 99 98 98 75 67 69 68 59 37 38 40 47 49 52 53 52 54 52 46 49 45 36 31 35
62 67 70 74 75 82 87 86 84 75 64 47 29 35 55 68 74 73 72 71 69 81 80 92 98 77 79 83 75 66 66 67 60 52 51 50 54 48 48 48 49 49 48 51 45 37 40
52 57 63 68 71 73 77 91 92 90 85 76 62 36 26 47 66 76 78 77 74 72 76 87 93 89 88 86 82 76 71 69 68 62 59 55 49 42 46 48 52 53 52 54 48 40 45
40 48 49 50 50 61 61 70 85 89 89 86 80 75 58 30 53 59 71 78 80 78 77 68 86 88 86 90 87 80 83 75 70 69 67 63 41 46 49 49 52 52 53 54 50 46 45
33 37 36 42 46 51 51 60 65 77 85 87 84 85 79 73 42 42 51 64 75 79 82 70 68 74 86 92 82 81 82 84 83 76 72 68 60 59 57 52 46 47 45 51 49 52 52
32 33 29 32 37 45 53 50 58 62 67 74 81 80 82 82 75 56 39 49 61 71 86 49 58 62 68 76 68 77 82 82 83 80 80 57 65 65 62 45 51 46 44 49 50 54 56
30 31 29 28 30 34 39 49 46 52 50 55 69 75 82 87 85 77 66 64 73 79 72 49 56 62 71 66 66 77 84 83 84 87 74 63 69 67 56 62 60 56 56 53 55 57 62
25 24 25 26 26 29 32 39 48 52 48 45 54 66 77 86 86 88 83 76 81 87 62 54 54 58 59 63 71 78 83 87 80 91 79 77 73 71 64 67 65 65 67 74 77 76 57
23 24 24 25 23 22 24 28 34 48 55 51 47 52 61 75 87 95 97 93 90 53 54 55 56 52 63 58 64 72 77 82 82 73 72 81 77 69 63 65 66 67 69 68 70 61 52
23 24 25 24 21 20 21 25 33 41 50 58 57 53 54 58 71 88 99 98 76 47 33 32 42 60 65 67 64 69 75 72 66 70 77 78 71 59 64 70 70 70 76 52 65 64 68
29 27 27 30 29 27 23 24 32 41 51 57 68 61 57 61 70 88 98 91 64 39 32 32 32 50 69 63 80 78 80 68 69 70 68 73 75 59 65 72 74 67 62 81 79 88 70
32 30 30 31 33 31 30 28 32 43 57 64 65 71 61 68 82 91 86 64 46 39 40 44 39 39 36 58 84 75 80 61 62 70 77 73 79 71 70 63 60 73 76 72 79 78 64
33 31 32 28 34 36 31 29 33 48 66 67 69 71 73 76 85 79 61 39 48 46 51 52 53 49 40 32 50 82 92 68 57 56 67 61 77 86 72 69 69 69 65 68 80 63 62
39 36 32 29 36 37 37 30 32 52 79 80 73 73 77 80 76 63 52 52 56 47 50 54 53 49 39 33 44 63 85 89 88 84 72 65 90 94 87 85 80 72 59 64 63 69 60
44 41 37 32 33 32 37 34 32 65 93 93 81 76 78 80 64 60 61 56 61 60 59 60 53 63 62 59 57 50 59 80 83 91 89 85 89 94 89 62 58 89 75 65 69 79 53
44 40 40 35 29 30 32 34 35 63 94 99 88 73 74 68 71 76 72 54 64 66 57 61 60 54 46 52 53 54 49 52 68 79 93 93 93 83 72 61 71 67 73 72 74 65 76
45 34 40 39 29 27 32 34 39 57 91 99 93 90 84 68 76 83 80 65 56 48 64 58 59 47 53 56 44 44 41 42 39 71 97 98 97 92 95 69 75 73 67 75 76 69 73
48 39 34 34 33 27 32 35 39 54 93 98 91 91 94 78 86 92 66 62 67 76 83 69 60 63 74 55 38 41 56 54 65 76 93 98 97 98 97 71 73 87 76 75 80 67 65
52 39 35 33 32 28 30 34 37 49 92 99 91 94 96 75 91 74 73 84 88 81 73 72 80 87 53 48 74 72 71 65 65 64 76 96 97 97 94 94 98 87 62 70 74 70 68
55 42 39 31 32 28 27 33 35 44 76 94 91 96 98 86 94 83 91 93 93 91 89 85 83 59 77 82 89 92 88 80 68 65 66 78 86 96 97 93 89 86 66 68 76 63 52
55 44 33 30 31 27 26 35 39 43 69 90 83 95 97 95 76 83 91 98 96 97 98 84 84 85 87 95 98 97 94 74 67 60 57 70 76 90 94 96 94 65 50 49 50 71 48
53 46 40 35 30 26 26 38 43 47 75 90 81 95 97 95 84 89 91 93 97 97 94 92 91 91 90 97 97 96 81 65 69 60 67 75 81 96 96 97 82 56 58 66 86 73 37
52 44 45 37 33 27 27 41 43 61 84 90 80 95 98 91 90 88 89 92 96 96 95 92 95 96 99 99 98 87 82 70 70 58 68 67 73 96 91 95 93 66 78 87 49 32 34
42 44 39 42 36 28 31 40 60 84 92 91 80 92 95 94 88 93 93 95 94 92 94 93 89 90 89 95 89 85 79 73 61 72 58 70 72 80 92 89 91 95 91 76 64 59 50